This demonstration page uses our WeatherBlox Daily Observations layout. Learn more.

Left ArrowRight Arrow

38.88101, -77.10428

Hourly Observations for October 26, 2021

Temp ( °F °C ) Dew Point ( °F °C ) Humidity (%) Winds ( mph kmh ) Pressure ( in mb ) Visibility ( mi km ) Precip ( " mm )
12:32 am 00:32 Cloudy with Light Rain 61 16.1 58 14.4 90 90 N 3 6 29.65 1004 5 8 0.04 1.02
12:52 am 00:52 Cloudy with Rain 61 16.1 58 14.4 90 90 NNE 5 7 29.62 1003 4 6 0.11 2.79
1:01 am 01:01 Cloudy with Heavy Rain 61 16.1 58 14.4 90 90 NNE 7 11 29.61 1003 4 6 0.02 0.51
1:52 am 01:52 Cloudy 61 16.1 58 14.4 90 90 N N/A 29.59 1002 10 16 0.12 3.05
2:09 am 02:09 Cloudy 61 16.1 58 14.4 90 90 NNW 3 6 29.59 1002 10 16 N/A
2:38 am 02:38 Cloudy 61 16.1 58 14.4 90 90 NNW 9 15 29.58 1002 10 16 N/A
2:52 am 02:52 Cloudy 61 16.1 58 14.4 90 90 NNW 7 11 29.58 1002 10 16 N/A
3:52 am 03:52 Cloudy 61 16.1 57 13.9 87 87 NW 9 15 29.57 1001 10 16 N/A
3:59 am 03:59 Cloudy 61 16.1 57 13.9 87 87 NNW 7 11 29.57 1001 10 16 N/A
4:11 am 04:11 Cloudy 61 16.1 57 13.9 87 87 N 6 9 29.57 1001 10 16 N/A
4:13 am 04:13 Mostly Cloudy 61 16.1 57 13.9 87 87 NNW 6 9 29.57 1001 10 16 N/A
4:52 am 04:52 Mostly Cloudy 60 15.6 57 13.9 90 90 NNW 6 9 29.57 1001 10 16 N/A
5:52 am 05:52 Mostly Cloudy 60 15.6 56 13.3 86 86 NNW 10 17 29.57 1002 10 16 N/A
6:52 am 06:52 Mostly Cloudy 60 15.6 55 12.8 84 84 NW 10 17 29.57 1002 10 16 N/A
7:52 am 07:52 Mostly Cloudy 59 15 54 12.2 83 83 WNW 6 9 29.57 1002 10 16 N/A
8:52 am 08:52 Mostly Cloudy 61 16.1 52 11.1 72 72 NW 12 19 29.57 1001 10 16 N/A
9:52 am 09:52 Mostly Cloudy 63 17.2 51 10.6 65 65 WNW 14 22 29.56 1001 10 16 N/A
10:52 am 10:52 Mostly Cloudy 65 18.3 51 10.6 61 61 NW 21 33 29.54 1001 10 16 N/A
11:52 am 11:52 Mostly Cloudy 66 18.9 51 10.6 59 59 WNW 21 33 29.56 1001 10 16 N/A
12:52 pm 12:52 Mostly Sunny 66 18.9 48 8.9 52 52 WNW 26 43 29.55 1001 10 16 N/A
1:52 pm 13:52 Partly Cloudy 64 17.8 45 7.2 50 50 NW 23 37 29.55 1001 10 16 N/A
2:52 pm 14:52 Partly Cloudy 64 17.8 44 6.7 48 48 NW 18 30 29.55 1001 10 16 N/A
3:52 pm 15:52 Cloudy 61 16.1 42 5.6 50 50 NW 18 30 29.58 1002 10 16 N/A
4:52 pm 16:52 Cloudy 59 15 40 4.4 49 49 WNW 17 28 29.61 1003 10 16 N/A
5:52 pm 17:52 Cloudy 57 13.9 40 4.4 53 53 NW 20 31 29.63 1003 10 16 N/A
6:52 pm 18:52 Cloudy 56 13.3 39 3.9 53 53 NW 18 30 29.65 1004 10 16 N/A
7:52 pm 19:52 Cloudy 55 12.8 39 3.9 55 55 NW 12 19 29.65 1004 10 16 N/A
8:52 pm 20:52 Mostly Cloudy 54 12.2 39 3.9 57 57 NW 15 24 29.65 1004 10 16 N/A
9:52 pm 21:52 Partly Cloudy 54 12.2 38 3.3 55 55 NW 22 35 29.66 1005 10 16 N/A
10:52 pm 22:52 Cloudy 54 12.2 38 3.3 55 55 NW 17 28 29.67 1005 10 16 N/A
11:52 pm 23:52 Cloudy 53 11.7 39 3.9 59 59 NW 15 24 29.65 1004 10 16 N/A

Powered by AerisWeather